Vorticity
4 4 4 4 4 4 4 4 4 3 3 3 2 2 2 2 2 2 2 3 3 5 6 6 6 6 7 8 11 11 8 6 6 7 6 6 8 9 12 10 4 4 7 7 6 9 9 6 7 8 7 10 9 8 6 5 4 4 6 7 9 10 4 5 7 1 2 3 4 6 4 3 7 9 6 4 5 5 4 3 1 -0 3 5 6 5 4 5
7 7 7 7 7 7 7 7 7 7 6 6 6 5 4 3 3 2 2 2 2 3 3 5 6 7 6 6 8 11 11 8 7 6 5 6 7 9 11 13 7 1 3 7 7 6 6 6 5 6 6 7 9 11 9 7 5 4 4 2 2 6 3 5 7 1 2 4 3 5 4 4 8 7 4 5 5 2 2 2 1 2 4 6 6 6 4 2
9 9 9 9 9 9 8 8 8 8 8 8 8 7 7 6 6 5 4 3 2 2 1 2 4 5 6 6 6 7 9 11 10 6 6 7 7 8 9 11 10 5 0 3 10 8 3 6 4 3 5 5 7 10 9 8 8 5 4 1 -2 -0 -1 3 9 7 6 6 6 7 6 7 7 5 5 6 6 4 6 6 5 7 8 8 7 7 3 -2
10 10 10 10 10 10 9 9 9 9 9 8 8 8 8 8 8 7 7 6 5 4 3 2 2 3 5 6 6 6 7 9 11 10 7 7 6 6 7 8 9 9 4 1 8 11 6 6 4 2 4 5 8 10 10 7 9 9 4 3 1 1 -0 2 10 10 6 5 9 10 8 8 5 5 6 6 7 6 6 7 7 9 9 9 10 9 4 -2
11 11 11 11 11 10 11 11 11 10 10 10 9 9 9 9 8 8 8 7 7 7 6 5 3 2 2 3 5 6 6 5 7 11 9 7 6 5 5 6 7 9 10 5 6 10 10 7 3 4 5 4 6 9 10 6 7 11 7 5 5 5 4 5 9 6 1 2 6 7 7 6 1 3 6 4 5 4 6 9 8 11 12 11 10 9 7 3
11 11 10 11 11 11 11 11 11 11 11 11 11 11 11 11 10 9 9 8 8 8 8 8 7 4 2 2 3 4 6 5 6 9 10 9 7 5 4 4 6 8 10 10 7 7 10 8 4 6 5 4 4 6 9 4 5 9 9 7 4 6 6 6 8 2 0 5 4 2 3 3 0 3 6 4 3 3 7 10 9 12 14 10 6 6 8 8
10 10 10 10 10 10 10 10 10 10 10 11 11 11 11 12 12 12 11 10 9 8 8 9 9 8 6 4 2 2 4 5 5 6 9 10 10 8 6 4 5 6 7 10 11 7 8 9 7 5 4 4 4 6 8 4 3 6 9 8 3 5 5 5 7 0 -0 8 7 3 3 3 3 6 6 5 5 7 7 7 9 10 10 8 6 7 7 10
8 8 8 8 8 8 8 9 9 9 9 9 10 10 10 10 11 12 12 12 12 11 10 10 10 10 9 7 6 3 2 3 4 4 7 9 10 11 9 6 5 5 5 7 11 10 7 8 9 6 4 4 3 5 7 5 4 3 5 7 5 5 3 3 7 3 4 9 9 7 6 3 5 9 7 3 5 9 6 2 5 7 7 7 8 12 8 8
7 7 7 7 6 6 6 6 6 7 7 7 8 8 9 9 9 9 10 11 12 12 12 11 11 11 11 10 8 6 4 3 2 3 6 7 8 10 10 8 5 6 6 5 9 11 10 8 8 8 4 3 3 4 6 6 5 4 6 7 6 6 4 3 3 5 9 6 3 3 3 6 11 8 4 3 4 5 3 1 4 6 8 7 9 13 10 5
5 5 5 5 5 5 5 5 5 5 5 5 5 5 6 6 6 7 7 9 10 11 11 11 11 12 12 11 11 10 8 5 3 2 3 5 6 8 10 11 7 5 6 6 6 9 12 10 6 8 7 3 2 3 5 5 4 5 7 7 7 6 5 4 2 5 9 4 -1 -1 -2 4 8 1 -1 5 7 4 1 2 5 8 7 5 9 13 12 9
4 4 4 4 4 4 4 4 5 4 5 5 4 5 4 4 4 5 5 6 6 7 8 10 10 11 12 12 12 13 11 8 6 4 3 3 5 7 7 10 10 7 5 5 4 5 9 11 8 7 6 5 3 2 4 4 2 3 5 4 6 7 4 4 3 3 8 6 -1 1 1 1 1 -1 2 8 11 7 5 5 6 8 5 3 9 12 12 11
4 4 4 4 4 4 4 4 4 5 5 5 5 5 5 5 5 5 5 4 4 4 5 6 7 9 11 11 10 13 14 12 10 8 5 3 3 5 5 7 10 10 7 4 4 4 5 9 10 9 6 6 6 2 3 4 2 2 3 3 4 5 4 4 3 2 7 6 -1 2 5 2 4 4 4 9 11 9 9 8 5 5 3 5 11 12 12 10
5 5 5 5 5 5 5 4 4 4 4 4 4 4 4 5 5 5 4 4 5 5 4 3 4 5 8 10 9 9 12 14 14 12 9 6 3 3 4 4 7 9 10 8 5 5 6 7 8 11 9 6 6 4 3 3 2 1 2 4 5 4 3 3 4 2 5 3 -1 3 4 3 8 7 4 9 11 9 7 5 5 5 4 7 12 11 10 7
5 5 5 5 5 5 5 5 5 4 4 4 4 4 4 4 5 5 4 4 6 6 5 4 4 4 3 6 7 8 9 10 13 15 14 10 6 4 3 4 5 6 9 10 8 6 6 6 6 10 12 9 6 6 5 4 3 1 -1 3 8 7 4 2 3 3 4 1 -1 5 6 6 8 6 5 9 11 9 6 3 5 7 5 8 12 10 7 3
6 6 5 5 5 5 5 5 6 6 6 6 5 5 6 6 7 7 5 6 6 6 5 4 6 6 3 3 3 6 8 8 8 12 15 15 11 7 3 3 4 4 5 9 11 9 6 6 5 6 11 13 9 6 6 6 6 1 -4 -1 5 8 5 3 2 2 3 1 0 4 8 6 5 4 3 7 11 9 7 5 3 6 7 9 10 7 5 6
8 8 6 6 6 6 7 7 8 7 7 7 7 7 8 8 8 8 7 8 9 9 8 7 8 7 6 7 5 3 5 7 7 7 10 14 15 12 8 4 3 4 4 5 8 11 9 7 6 4 5 11 14 9 5 5 8 5 -2 -4 -1 4 6 6 5 4 2 1 2 4 8 6 3 3 -0 4 13 10 8 6 2 6 8 7 7 6 6 8
9 9 8 8 9 9 8 8 7 6 4 4 4 4 5 6 7 7 5 5 5 6 7 8 10 9 8 9 7 4 3 4 6 7 7 9 13 15 13 8 4 3 2 3 4 7 10 10 9 7 4 5 11 13 9 5 7 8 5 -1 -2 1 3 5 5 6 6 4 3 5 8 7 4 2 -4 -1 10 10 9 8 2 5 7 4 2 4 7 6
8 8 8 8 8 7 6 6 6 4 3 2 2 2 2 2 4 4 4 4 4 3 4 5 8 10 11 10 7 6 7 5 4 6 6 6 8 12 14 12 8 4 2 2 3 4 7 10 10 10 8 5 6 10 11 10 8 8 8 4 2 2 1 2 4 5 7 8 9 10 10 7 5 4 -1 2 9 9 8 5 0 2 6 4 -1 2 7 4
8 9 8 7 7 6 6 6 5 5 5 5 5 6 5 4 4 5 3 1 1 2 2 2 4 6 10 12 10 8 8 8 6 4 6 8 7 7 11 14 12 8 4 2 2 3 3 6 10 11 9 8 8 9 11 14 15 12 10 7 6 6 2 1 3 2 3 5 9 14 14 7 5 7 5 9 12 10 7 2 -0 4 6 5 4 4 5 3
9 9 9 8 8 8 8 8 8 9 9 10 11 11 11 11 11 12 12 6 3 3 1 -0 1 2 7 13 14 10 7 8 9 6 5 6 8 7 7 11 13 12 8 4 3 2 2 5 7 8 9 8 7 9 9 11 15 16 14 9 6 7 6 4 4 3 3 4 4 10 14 9 6 6 3 6 9 10 11 6 3 5 5 6 7 5 2 3
7 8 9 8 9 10 11 11 11 11 10 10 10 9 10 10 9 12 16 16 11 9 7 2 -0 -2 3 12 15 14 10 7 8 10 8 5 6 8 7 7 10 13 13 10 6 3 3 5 3 5 10 10 6 7 7 8 12 14 14 13 9 7 7 7 7 6 5 7 6 7 12 12 9 5 1 3 6 7 11 9 7 6 5 6 7 4 1 3
7 8 9 10 11 12 11 10 9 8 8 7 6 6 7 8 8 7 9 13 13 12 12 10 6 2 6 14 16 16 15 11 8 9 10 8 6 6 7 7 6 9 12 12 9 5 4 2 0 3 7 9 8 6 5 6 10 11 10 13 13 9 9 6 5 7 5 7 9 9 11 11 10 7 5 6 4 3 7 9 9 6 3 4 4 3 2 1
9 9 9 10 11 10 9 8 6 5 5 6 6 8 9 10 13 14 14 16 16 15 14 14 12 12 15 18 18 16 16 14 11 10 10 10 9 7 8 8 7 6 7 11 13 10 6 2 2 5 3 6 11 8 6 6 8 9 8 10 12 11 12 9 5 5 4 5 7 9 13 10 7 8 8 9 4 1 6 8 6 4 3 2 0 2 3 -1
9 8 9 9 9 9 8 7 7 7 7 9 11 12 13 15 17 19 20 20 20 21 19 17 17 19 22 22 21 21 21 16 12 13 13 11 10 9 9 8 8 7 5 7 11 13 11 5 6 7 1 3 9 9 8 6 7 9 7 8 10 10 14 13 9 6 3 4 4 6 14 13 7 7 9 8 4 1 5 8 5 2 3 0 -2 2 3 -3
10 10 10 10 10 9 9 11 13 13 14 15 16 17 17 18 19 20 21 21 23 24 22 22 22 23 24 24 22 22 23 22 15 13 15 14 12 11 10 9 9 8 7 6 5 10 14 11 9 6 0 1 5 8 9 7 6 9 7 6 6 9 14 14 12 9 4 5 4 3 13 16 7 6 8 6 3 0 3 8 7 4 3 -0 0 5 4 -0
11 11 10 11 13 13 15 18 19 20 23 20 17 18 17 17 18 17 16 16 17 18 20 21 22 23 22 24 26 23 21 23 19 14 15 18 16 13 11 11 11 9 9 8 4 4 10 14 13 7 2 3 4 4 7 7 8 8 6 6 6 6 12 13 12 11 7 6 6 3 8 15 10 5 5 6 7 4 1 5 7 6 6 1 1 6 7 4
13 13 13 13 16 19 22 22 21 24 25 21 20 19 16 16 15 13 14 14 13 15 17 18 18 21 20 19 24 26 24 23 21 16 14 17 20 18 14 12 13 12 11 9 6 3 5 10 14 12 5 3 5 3 3 8 11 7 4 6 7 5 9 14 12 11 9 7 7 5 5 11 14 8 2 3 9 8 3 4 5 7 7 4 2 6 9 8
15 15 15 17 19 21 22 21 21 20 15 13 15 13 11 11 10 9 11 10 11 12 12 13 14 16 18 17 18 21 24 24 23 20 16 14 19 21 19 15 13 13 12 10 7 6 6 6 10 15 11 5 4 2 2 8 11 7 5 5 7 6 7 12 13 11 9 8 8 6 5 9 14 13 6 2 6 9 5 3 5 7 8 5 4 7 9 8
15 17 18 20 22 20 19 18 15 11 7 7 7 5 5 6 5 6 6 7 10 10 9 11 11 9 10 12 12 13 18 21 22 24 20 13 15 20 21 19 15 14 13 11 9 8 7 6 6 11 13 10 7 3 2 7 9 9 6 3 5 8 6 8 13 12 8 6 6 5 5 7 12 14 9 3 6 9 8 5 4 7 8 5 3 7 10 6
15 17 18 20 20 17 15 13 8 4 3 3 2 4 6 7 7 7 8 10 10 8 9 11 11 10 9 10 9 8 10 12 15 21 23 17 14 17 20 21 18 16 15 13 12 10 8 6 5 6 11 12 10 6 3 3 8 11 7 1 4 7 6 6 11 13 8 5 5 5 3 2 10 18 9 5 11 10 7 7 5 5 7 4 2 5 7 4
14 19 20 18 17 12 8 7 6 4 1 2 4 8 10 11 11 11 11 11 9 10 16 15 14 14 11 10 10 9 10 10 9 11 16 18 17 16 19 23 19 17 19 17 12 11 10 7 5 5 7 11 12 9 3 1 5 11 8 1 1 5 5 6 9 11 9 7 6 6 3 -1 12 24 11 1 13 14 7 7 6 5 6 4 4 4 3 2
17 23 21 16 12 9 5 4 4 3 2 5 9 12 12 12 11 11 12 13 12 13 14 10 7 8 7 7 8 9 9 7 8 8 7 10 14 16 18 23 21 17 21 23 17 13 11 10 7 5 5 7 11 11 6 1 0 6 9 3 1 3 3 5 7 9 9 8 8 9 5 -5 2 23 20 4 10 17 11 8 7 5 6 6 5 4 1 2
20 25 20 13 9 8 6 4 3 4 7 11 12 12 12 11 10 11 13 15 13 10 8 6 4 4 6 9 12 18 20 13 7 8 8 6 7 10 15 21 21 16 20 25 25 18 12 11 8 6 5 5 8 12 9 4 1 3 8 7 2 2 4 5 5 6 8 7 8 11 7 -6 -8 11 22 9 5 15 14 10 11 8 5 6 7 6 4 2
22 21 14 9 8 7 5 4 6 8 11 12 13 12 10 10 11 14 16 14 9 6 5 4 3 2 2 4 7 16 28 30 20 11 10 9 7 5 8 17 20 18 17 21 29 27 15 12 11 5 5 4 5 11 12 9 6 4 7 9 5 3 5 8 7 6 6 5 8 11 6 -0 -2 5 18 17 7 10 14 11 12 12 7 6 8 6 5 4
17 12 7 7 8 7 6 8 9 10 11 12 12 11 9 10 13 16 15 10 4 3 4 5 6 7 5 4 5 5 13 28 33 27 18 12 12 9 5 8 16 19 17 16 27 33 22 13 12 7 6 7 3 7 11 11 8 5 5 7 8 5 3 5 8 6 5 6 8 10 5 -1 -4 -4 8 21 14 8 13 12 11 15 12 8 8 5 5 7
9 6 8 9 8 7 8 10 10 9 10 11 12 11 10 12 15 16 12 6 2 2 5 7 9 9 7 7 7 5 4 11 22 31 31 20 14 14 10 5 7 12 15 15 23 35 33 20 10 5 8 10 6 4 9 11 8 4 2 4 8 6 2 6 10 5 5 10 7 7 9 4 -0 -4 -2 12 17 13 15 13 8 15 15 9 9 7 5 8
7 9 10 9 8 8 8 9 9 10 11 12 13 12 11 13 15 16 12 5 2 3 7 9 9 10 11 10 8 7 6 3 5 16 30 30 19 15 16 12 7 5 8 12 17 30 39 29 12 5 7 11 8 4 7 11 12 8 3 3 6 4 2 6 10 6 6 10 5 3 9 10 10 11 6 7 14 16 16 13 10 15 16 10 10 10 7 6
11 12 9 8 8 8 9 10 12 12 12 13 13 12 13 14 15 16 11 6 4 5 7 8 8 9 11 12 11 10 8 5 1 4 17 30 27 16 15 18 15 7 4 7 12 24 38 34 20 10 7 10 9 5 6 9 12 13 9 5 5 4 5 6 7 7 5 6 4 2 8 10 7 8 9 7 8 12 16 14 12 13 11 10 9 10 8 5
13 11 8 8 9 12 14 14 13 12 12 13 13 14 15 16 17 16 11 9 7 7 7 7 9 11 10 11 11 12 13 9 3 1 6 21 29 20 13 16 19 15 8 4 7 18 32 36 28 17 10 9 9 8 8 7 9 13 12 8 6 4 6 7 9 9 6 5 4 1 6 10 7 3 6 9 10 11 13 12 12 11 8 10 10 9 9 7
13 11 9 11 14 16 14 12 12 13 13 14 15 16 18 18 17 15 11 9 8 7 7 7 9 10 9 10 11 13 16 13 7 3 2 12 25 22 13 13 16 18 15 8 6 11 23 33 31 20 15 12 9 10 9 5 9 12 9 8 8 5 2 3 8 9 7 7 5 3 6 6 6 6 6 10 14 12 11 14 15 11 8 10 10 9 10 9
11 10 12 14 16 14 10 11 12 13 15 16 17 17 18 17 15 12 10 8 7 6 7 8 9 11 10 10 12 12 15 16 13 8 4 7 18 21 16 13 12 15 17 13 9 9 15 29 32 21 19 19 12 10 8 5 8 10 8 8 7 6 4 2 6 7 6 7 4 4 9 5 5 10 6 7 15 15 11 15 16 10 7 10 9 8 12 12
12 15 16 15 13 11 11 12 12 15 16 15 16 17 17 15 12 11 8 6 6 6 8 10 10 11 12 11 12 13 15 17 15 12 8 7 14 19 16 15 14 12 14 15 13 10 9 23 33 24 21 25 17 7 5 7 11 12 11 11 8 5 5 4 5 5 6 8 3 3 10 7 3 9 8 6 16 19 12 11 16 12 6 10 11 8 9 12
16 17 15 12 13 13 13 11 12 15 15 15 16 16 15 14 11 10 9 8 9 10 11 13 12 12 14 13 14 15 15 16 16 16 15 11 14 18 16 17 17 12 12 13 13 13 8 14 30 30 21 25 23 11 5 7 12 16 14 11 10 7 3 3 3 2 5 6 4 7 10 5 2 9 11 8 14 21 15 8 12 13 6 4 7 5 4 7
14 12 12 14 16 15 13 12 12 13 13 14 16 16 15 15 13 13 13 13 14 14 13 12 12 14 16 16 17 18 18 18 15 15 20 19 19 22 20 20 20 16 14 13 11 14 11 8 23 31 22 20 24 18 12 9 10 15 16 11 11 9 6 7 6 4 5 4 4 9 6 1 5 10 9 9 12 18 19 10 8 11 8 3 2 5 7 9
10 9 12 16 18 16 14 14 12 11 13 13 13 15 14 15 16 16 16 15 13 12 12 13 15 18 20 21 20 20 23 26 23 21 25 27 23 24 24 22 22 20 15 14 12 11 12 9 14 27 23 15 20 20 14 11 8 10 15 13 10 11 8 5 5 6 7 4 3 6 5 4 8 9 7 9 8 9 17 17 11 10 11 9 6 8 12 14
8 10 13 14 15 13 11 10 10 12 13 11 12 13 12 13 15 13 12 13 11 11 11 12 15 18 22 25 25 24 28 33 34 30 27 28 25 23 24 22 22 23 17 15 15 11 12 9 8 22 27 15 20 26 15 11 11 9 13 14 9 12 11 4 3 5 5 6 3 1 5 10 10 7 8 11 6 4 12 17 14 10 8 7 7 8 9 11
8 9 10 11 12 11 9 9 10 11 11 11 12 13 14 15 15 13 13 12 10 11 11 14 20 26 29 32 31 27 26 27 30 27 23 24 23 22 24 23 22 24 20 17 16 13 14 11 4 17 29 18 19 29 18 10 15 11 12 15 10 10 12 6 4 4 2 5 4 -0 3 10 11 9 10 12 9 6 9 13 14 12 8 5 6 8 8 7
7 7 9 11 10 8 8 9 10 11 12 12 13 14 16 16 15 15 13 9 9 11 16 26 35 35 29 24 24 24 21 20 21 21 19 20 21 21 24 24 23 24 24 20 17 14 14 14 5 11 27 22 18 28 21 9 14 14 11 16 14 10 12 7 4 5 4 2 3 4 5 6 8 14 16 12 9 8 9 12 12 11 10 8 6 6 7 5
8 9 10 10 10 9 9 9 10 13 13 12 13 15 15 14 14 13 9 8 11 13 23 35 36 25 12 8 16 22 19 14 12 12 12 12 14 17 19 22 21 22 25 23 19 16 14 14 8 8 23 26 18 26 26 8 9 16 12 14 17 13 13 10 5 5 5 2 2 5 7 5 6 17 23 16 10 8 8 10 10 8 9 10 8 7 5 3
9 11 10 10 11 10 9 10 10 13 13 13 15 16 16 15 14 11 9 10 13 21 32 37 27 17 10 8 14 17 14 14 14 11 9 6 7 10 13 19 21 21 24 24 21 18 15 15 12 7 19 28 18 23 31 13 3 13 14 13 17 15 13 11 7 6 5 3 2 3 8 9 6 13 21 17 10 9 8 7 9 9 9 11 9 7 6 5
12 13 11 11 12 9 8 9 10 13 14 13 15 16 16 16 13 12 11 11 19 31 35 29 21 19 18 15 15 14 12 14 14 13 11 7 7 8 9 13 18 19 22 24 23 20 15 15 15 8 15 26 17 18 34 22 3 8 16 14 14 16 15 12 9 7 5 4 3 3 9 11 5 7 16 14 8 10 11 10 11 12 10 10 9 8 9 8
14 13 11 12 11 9 9 9 9 13 13 12 15 15 14 15 14 13 13 15 26 35 28 19 17 15 12 12 14 13 11 12 13 13 14 12 9 9 8 10 12 15 20 24 24 20 14 14 17 13 14 21 17 18 32 28 8 6 15 14 11 16 17 12 11 8 3 4 5 5 10 12 2 0 10 14 11 12 16 17 18 16 11 9 10 8 7 6
Height
5865 5865 5864 5864 5864 5864 5864 5864 5864 5864 5863 5863 5863 5862 5862 5862 5862 5862 5863 5863 5864 5864 5864 5864 5864 5864 5864 5865 5865 5866 5866 5866 5866 5868 5869 5868 5868 5869 5870 5872 5873 5874 5875 5877 5879 5880 5881 5882 5883 5884 5885 5886 5887 5888 5890 5892 5893 5894 5894 5895 5896 5896 5897 5898 5898 5898 5898 5899 5899 5900 5901 5902 5902 5903 5903 5904 5904 5905 5905 5906 5907 5907 5908 5909 5910 5910 5911 5912
5863 5862 5862 5862 5862 5861 5861 5861 5861 5861 5861 5861 5860 5860 5860 5860 5860 5860 5860 5861 5862 5862 5862 5862 5863 5863 5863 5863 5863 5864 5864 5864 5865 5866 5867 5866 5867 5868 5869 5870 5871 5872 5873 5874 5876 5877 5879 5880 5881 5881 5882 5884 5885 5887 5889 5891 5892 5893 5893 5894 5895 5896 5896 5898 5898 5898 5898 5898 5899 5900 5901 5902 5902 5903 5903 5903 5904 5904 5905 5906 5906 5907 5907 5908 5909 5910 5910 5911
5860 5860 5860 5859 5859 5859 5859 5858 5858 5858 5858 5858 5858 5857 5858 5858 5858 5858 5858 5859 5859 5860 5860 5860 5861 5861 5861 5861 5861 5862 5862 5863 5863 5865 5865 5865 5866 5867 5868 5868 5869 5870 5871 5872 5873 5874 5876 5876 5877 5879 5880 5881 5883 5885 5887 5889 5891 5892 5893 5893 5894 5895 5896 5897 5898 5898 5898 5898 5898 5899 5900 5901 5902 5902 5902 5903 5904 5904 5905 5906 5906 5907 5907 5908 5908 5909 5910 5910
5858 5858 5857 5857 5856 5856 5856 5856 5856 5855 5855 5855 5855 5855 5855 5855 5856 5856 5856 5856 5856 5857 5858 5858 5859 5859 5860 5860 5860 5860 5860 5861 5861 5862 5862 5862 5864 5865 5865 5866 5866 5868 5869 5870 5872 5873 5874 5875 5877 5878 5879 5880 5882 5884 5886 5887 5889 5890 5891 5891 5893 5894 5895 5896 5898 5898 5898 5898 5898 5898 5899 5901 5901 5901 5902 5902 5903 5904 5906 5906 5907 5907 5908 5908 5909 5909 5909 5909
5855 5855 5855 5854 5854 5854 5854 5853 5853 5853 5852 5852 5852 5852 5853 5853 5853 5853 5853 5853 5854 5854 5855 5856 5856 5857 5858 5858 5858 5858 5858 5859 5859 5859 5860 5860 5862 5863 5863 5863 5864 5866 5867 5869 5871 5872 5874 5875 5877 5877 5879 5880 5882 5884 5885 5886 5887 5889 5889 5890 5892 5893 5894 5895 5897 5898 5898 5898 5899 5899 5900 5900 5900 5901 5901 5902 5903 5904 5905 5906 5906 5907 5908 5908 5909 5909 5909 5909
5853 5852 5852 5852 5851 5851 5851 5851 5850 5850 5850 5850 5850 5850 5850 5850 5850 5850 5850 5851 5851 5851 5852 5853 5854 5854 5855 5855 5856 5856 5856 5856 5856 5857 5858 5858 5859 5860 5861 5862 5862 5864 5866 5867 5869 5871 5873 5874 5875 5876 5878 5879 5881 5883 5884 5884 5885 5887 5888 5889 5890 5891 5893 5894 5896 5897 5897 5898 5899 5899 5900 5900 5900 5901 5901 5901 5902 5903 5904 5905 5906 5907 5908 5908 5908 5908 5909 5909
5851 5850 5850 5849 5849 5849 5849 5849 5848 5848 5847 5847 5847 5847 5847 5847 5847 5847 5847 5848 5848 5849 5849 5850 5851 5851 5852 5853 5853 5853 5853 5854 5854 5854 5856 5857 5857 5858 5859 5859 5861 5862 5864 5865 5866 5868 5870 5872 5874 5875 5876 5877 5880 5881 5882 5883 5884 5885 5887 5888 5888 5889 5891 5893 5895 5896 5897 5897 5898 5898 5899 5900 5900 5901 5901 5901 5902 5902 5903 5904 5905 5906 5907 5907 5908 5908 5909 5909
5849 5848 5848 5847 5847 5846 5846 5846 5846 5845 5845 5845 5845 5845 5845 5844 5844 5844 5844 5845 5846 5846 5847 5847 5848 5848 5849 5849 5850 5850 5850 5851 5851 5852 5854 5855 5856 5857 5857 5857 5858 5860 5861 5862 5863 5865 5866 5869 5871 5873 5874 5876 5877 5878 5880 5881 5882 5884 5885 5886 5887 5888 5890 5892 5893 5895 5896 5897 5897 5897 5898 5899 5900 5901 5901 5901 5901 5902 5903 5904 5904 5905 5906 5907 5907 5908 5908 5909
5847 5847 5846 5845 5845 5844 5844 5843 5843 5843 5843 5843 5842 5842 5842 5842 5841 5842 5842 5842 5843 5844 5844 5844 5844 5845 5845 5846 5846 5847 5847 5849 5849 5850 5851 5853 5854 5855 5855 5855 5856 5857 5859 5860 5861 5863 5864 5866 5867 5869 5871 5871 5872 5874 5876 5878 5881 5881 5881 5884 5886 5887 5889 5890 5892 5894 5896 5896 5896 5897 5898 5899 5900 5901 5901 5901 5900 5901 5902 5903 5904 5905 5905 5907 5907 5907 5908 5908
5846 5845 5844 5843 5842 5842 5841 5841 5840 5840 5840 5840 5839 5839 5839 5839 5839 5839 5839 5840 5840 5841 5841 5841 5841 5841 5842 5842 5843 5844 5844 5845 5847 5848 5849 5850 5851 5852 5853 5853 5853 5854 5856 5857 5859 5861 5861 5862 5862 5864 5865 5866 5868 5870 5873 5876 5878 5878 5878 5881 5884 5885 5887 5889 5891 5892 5894 5895 5895 5896 5897 5898 5899 5900 5901 5901 5900 5900 5901 5902 5903 5904 5905 5906 5907 5907 5907 5908
5843 5842 5841 5840 5840 5839 5839 5838 5837 5837 5837 5836 5836 5836 5836 5836 5835 5836 5836 5837 5838 5838 5838 5838 5838 5838 5838 5840 5841 5841 5841 5842 5843 5845 5846 5847 5848 5849 5850 5851 5851 5851 5853 5855 5856 5857 5857 5858 5859 5860 5862 5865 5867 5869 5871 5874 5874 5874 5875 5878 5881 5884 5886 5888 5890 5891 5893 5894 5894 5895 5896 5898 5899 5899 5900 5901 5901 5900 5901 5901 5903 5904 5905 5906 5907 5907 5907 5907
5840 5839 5839 5838 5837 5836 5835 5834 5834 5833 5833 5833 5832 5832 5832 5832 5832 5832 5833 5834 5834 5835 5835 5836 5835 5835 5835 5836 5838 5838 5837 5838 5840 5842 5842 5843 5845 5846 5847 5848 5849 5849 5851 5853 5853 5854 5854 5856 5857 5858 5860 5863 5864 5866 5869 5871 5870 5871 5873 5875 5878 5881 5884 5886 5888 5889 5891 5892 5892 5894 5896 5898 5898 5898 5899 5900 5901 5901 5901 5901 5902 5903 5904 5905 5906 5907 5907 5907
5837 5836 5836 5835 5834 5833 5832 5831 5830 5829 5829 5828 5828 5828 5827 5827 5827 5828 5829 5830 5830 5831 5832 5832 5832 5833 5833 5833 5834 5834 5834 5836 5837 5838 5839 5840 5841 5843 5844 5845 5846 5847 5849 5850 5850 5852 5853 5855 5855 5856 5858 5860 5861 5863 5866 5868 5868 5869 5871 5873 5875 5878 5882 5884 5885 5887 5889 5890 5891 5893 5895 5897 5896 5896 5898 5900 5901 5900 5900 5901 5901 5903 5904 5905 5906 5906 5907 5906
5833 5833 5833 5832 5831 5830 5829 5828 5827 5826 5825 5824 5824 5823 5823 5822 5822 5824 5825 5825 5826 5826 5827 5828 5828 5829 5830 5830 5831 5831 5832 5832 5833 5834 5835 5836 5838 5839 5840 5842 5843 5844 5845 5846 5847 5849 5850 5852 5853 5854 5856 5858 5859 5860 5864 5865 5865 5867 5869 5870 5872 5875 5879 5882 5883 5885 5887 5888 5889 5891 5894 5895 5894 5895 5898 5899 5900 5900 5899 5900 5900 5901 5903 5904 5905 5906 5906 5905
5829 5829 5829 5828 5827 5827 5825 5824 5823 5822 5821 5821 5820 5819 5819 5818 5818 5819 5820 5820 5821 5822 5823 5823 5823 5824 5826 5827 5827 5827 5828 5829 5829 5830 5831 5832 5833 5834 5836 5838 5839 5840 5842 5843 5844 5846 5847 5848 5850 5852 5855 5856 5857 5859 5861 5862 5864 5865 5866 5868 5871 5874 5878 5880 5881 5884 5886 5886 5887 5890 5893 5893 5893 5895 5896 5897 5899 5899 5899 5899 5899 5900 5901 5903 5904 5905 5905 5905
5825 5825 5825 5824 5823 5823 5822 5820 5819 5818 5818 5817 5816 5815 5815 5813 5813 5815 5815 5816 5816 5817 5818 5818 5818 5819 5820 5822 5823 5823 5824 5825 5825 5825 5827 5828 5828 5830 5831 5833 5835 5836 5837 5839 5841 5842 5843 5845 5847 5849 5851 5852 5855 5857 5859 5860 5861 5862 5862 5866 5870 5872 5877 5878 5879 5882 5884 5884 5885 5889 5892 5891 5891 5893 5895 5896 5898 5898 5899 5898 5898 5899 5901 5902 5903 5904 5905 5905
5821 5820 5820 5819 5819 5818 5817 5816 5815 5814 5813 5812 5812 5811 5810 5809 5809 5810 5811 5811 5812 5812 5812 5812 5813 5814 5815 5816 5818 5819 5819 5820 5821 5821 5823 5823 5824 5826 5827 5828 5830 5831 5833 5835 5836 5838 5840 5842 5844 5846 5848 5849 5852 5854 5855 5857 5859 5859 5861 5866 5869 5871 5875 5876 5877 5880 5882 5882 5884 5887 5890 5890 5890 5891 5893 5894 5896 5897 5898 5898 5897 5898 5899 5901 5902 5904 5904 5905
5816 5816 5815 5815 5814 5813 5812 5811 5810 5809 5808 5807 5806 5806 5805 5804 5803 5804 5806 5806 5807 5807 5807 5807 5808 5808 5809 5810 5812 5813 5814 5814 5816 5817 5818 5820 5820 5821 5822 5823 5825 5826 5828 5830 5832 5834 5836 5838 5841 5842 5844 5846 5850 5852 5854 5857 5859 5860 5863 5867 5868 5870 5872 5874 5875 5877 5879 5880 5882 5885 5888 5888 5887 5889 5892 5892 5894 5895 5896 5896 5896 5896 5898 5899 5901 5902 5903 5904
5812 5811 5810 5809 5808 5807 5806 5805 5804 5803 5803 5802 5800 5799 5799 5798 5798 5798 5800 5801 5801 5801 5801 5802 5803 5803 5803 5805 5806 5808 5808 5809 5810 5812 5814 5815 5816 5817 5817 5818 5820 5821 5823 5825 5828 5829 5832 5834 5836 5838 5842 5847 5850 5852 5854 5856 5858 5860 5863 5865 5866 5867 5869 5872 5873 5874 5875 5877 5879 5882 5885 5886 5885 5887 5889 5890 5892 5893 5894 5895 5895 5896 5897 5898 5900 5901 5902 5902
5807 5806 5805 5803 5802 5801 5800 5799 5798 5797 5797 5796 5794 5793 5792 5792 5792 5791 5792 5794 5794 5795 5795 5796 5797 5798 5798 5799 5799 5801 5802 5802 5804 5806 5808 5810 5811 5812 5813 5814 5815 5816 5818 5821 5823 5825 5827 5829 5832 5838 5844 5847 5848 5849 5850 5852 5854 5856 5858 5860 5862 5863 5865 5869 5870 5870 5871 5873 5876 5879 5881 5882 5882 5884 5886 5887 5888 5891 5893 5894 5895 5896 5896 5897 5899 5900 5901 5901
5803 5801 5799 5798 5796 5794 5793 5792 5791 5791 5790 5789 5788 5787 5785 5785 5786 5784 5784 5785 5787 5788 5788 5789 5790 5792 5792 5793 5793 5794 5795 5796 5797 5799 5802 5804 5805 5806 5807 5809 5810 5812 5814 5817 5818 5819 5821 5823 5830 5838 5841 5841 5842 5843 5845 5847 5850 5851 5853 5855 5858 5859 5862 5865 5866 5867 5867 5869 5873 5875 5877 5880 5880 5882 5883 5883 5886 5889 5892 5893 5894 5895 5895 5896 5897 5898 5899 5900
5798 5796 5794 5792 5790 5788 5787 5786 5785 5784 5784 5783 5781 5780 5778 5778 5779 5779 5777 5776 5777 5779 5779 5781 5783 5784 5785 5786 5787 5788 5788 5789 5790 5792 5795 5798 5799 5800 5801 5804 5806 5808 5810 5810 5811 5813 5815 5819 5830 5836 5835 5835 5837 5838 5840 5842 5845 5846 5847 5850 5853 5856 5860 5862 5863 5864 5864 5865 5869 5871 5874 5876 5877 5878 5879 5881 5884 5887 5889 5891 5892 5893 5893 5894 5895 5897 5898 5900
5792 5790 5788 5786 5784 5782 5781 5779 5779 5778 5777 5775 5774 5773 5771 5771 5771 5771 5771 5769 5769 5770 5770 5771 5773 5775 5777 5779 5780 5781 5781 5781 5783 5785 5788 5791 5792 5793 5795 5798 5800 5802 5803 5804 5806 5809 5811 5819 5829 5831 5829 5831 5832 5833 5836 5838 5841 5842 5843 5846 5849 5853 5857 5860 5860 5860 5860 5862 5865 5867 5870 5872 5873 5873 5875 5879 5882 5884 5886 5888 5889 5890 5891 5892 5893 5894 5896 5897
5786 5784 5781 5779 5778 5776 5774 5773 5772 5771 5770 5769 5767 5766 5764 5764 5763 5763 5764 5762 5761 5762 5761 5762 5763 5766 5768 5770 5772 5772 5773 5774 5776 5777 5780 5782 5785 5787 5789 5791 5794 5795 5797 5798 5801 5804 5808 5816 5824 5823 5822 5825 5827 5829 5832 5834 5837 5839 5840 5843 5846 5850 5853 5855 5856 5856 5857 5859 5862 5864 5865 5867 5869 5870 5874 5877 5879 5880 5883 5884 5886 5888 5890 5890 5890 5892 5893 5894
5779 5778 5775 5773 5772 5770 5768 5766 5765 5764 5764 5763 5761 5760 5759 5758 5757 5757 5757 5757 5755 5755 5755 5755 5756 5758 5760 5762 5764 5764 5764 5766 5768 5769 5771 5774 5777 5780 5782 5784 5787 5788 5790 5793 5795 5798 5802 5810 5817 5816 5815 5820 5822 5825 5828 5830 5833 5835 5838 5841 5844 5847 5848 5850 5852 5852 5853 5855 5858 5860 5860 5863 5866 5868 5871 5874 5875 5877 5879 5882 5885 5888 5888 5888 5889 5892 5893 5894
5773 5771 5769 5767 5765 5764 5762 5760 5759 5758 5757 5757 5756 5754 5753 5753 5752 5751 5752 5752 5751 5750 5750 5750 5751 5752 5753 5755 5756 5756 5757 5758 5760 5762 5763 5767 5769 5772 5774 5777 5779 5781 5784 5786 5788 5791 5797 5805 5810 5809 5810 5814 5816 5819 5823 5826 5828 5832 5837 5840 5840 5841 5843 5845 5848 5848 5847 5850 5854 5855 5854 5859 5862 5863 5867 5869 5871 5874 5876 5878 5883 5886 5887 5887 5889 5891 5892 5893
5767 5765 5763 5761 5760 5758 5757 5755 5754 5753 5752 5751 5751 5749 5748 5747 5747 5747 5747 5747 5747 5746 5746 5746 5746 5746 5748 5749 5750 5750 5750 5751 5753 5754 5756 5759 5761 5764 5767 5769 5771 5774 5777 5779 5780 5785 5793 5799 5803 5803 5804 5808 5812 5815 5820 5823 5826 5831 5836 5835 5834 5837 5839 5841 5843 5843 5843 5846 5850 5850 5850 5853 5856 5859 5864 5865 5867 5871 5872 5874 5879 5883 5885 5887 5889 5890 5892 5893
5762 5760 5758 5756 5755 5753 5752 5751 5749 5748 5747 5747 5746 5745 5743 5743 5743 5742 5742 5742 5742 5742 5742 5742 5742 5741 5742 5743 5744 5745 5744 5744 5745 5746 5749 5752 5754 5756 5759 5760 5763 5766 5768 5771 5773 5780 5788 5793 5797 5797 5798 5803 5809 5814 5818 5820 5822 5828 5831 5829 5829 5832 5834 5836 5837 5837 5840 5841 5842 5844 5845 5847 5851 5857 5860 5861 5863 5866 5869 5872 5876 5880 5883 5885 5887 5889 5890 5891
5757 5755 5753 5751 5750 5749 5748 5747 5745 5744 5743 5743 5742 5741 5740 5739 5739 5738 5738 5737 5737 5737 5737 5737 5737 5737 5737 5737 5738 5739 5739 5739 5739 5739 5742 5745 5747 5749 5750 5752 5755 5758 5761 5764 5767 5773 5780 5786 5789 5790 5792 5798 5806 5811 5813 5814 5816 5823 5824 5822 5825 5827 5827 5830 5830 5833 5835 5832 5833 5839 5841 5842 5848 5854 5856 5856 5860 5864 5867 5871 5874 5877 5881 5883 5885 5887 5889 5890
5753 5751 5749 5747 5746 5744 5743 5743 5742 5741 5740 5740 5739 5738 5736 5736 5735 5734 5733 5732 5732 5732 5733 5732 5732 5733 5733 5732 5732 5732 5733 5734 5734 5735 5736 5738 5740 5741 5743 5746 5748 5750 5754 5757 5760 5765 5773 5779 5782 5784 5786 5792 5799 5803 5804 5806 5811 5817 5816 5816 5819 5819 5820 5823 5825 5829 5827 5821 5826 5836 5837 5838 5843 5849 5851 5853 5859 5863 5866 5870 5872 5875 5878 5881 5884 5885 5887 5888
5749 5747 5745 5744 5742 5741 5740 5738 5738 5737 5737 5736 5735 5734 5732 5731 5731 5730 5728 5727 5727 5728 5728 5727 5727 5728 5728 5728 5727 5727 5727 5728 5729 5730 5730 5731 5733 5734 5736 5739 5741 5744 5746 5748 5753 5758 5764 5771 5776 5778 5780 5785 5791 5794 5796 5800 5806 5809 5808 5809 5812 5812 5814 5816 5819 5821 5816 5815 5825 5833 5835 5834 5836 5844 5849 5851 5857 5860 5863 5867 5870 5872 5875 5878 5882 5884 5885 5886
5744 5743 5741 5740 5739 5738 5737 5736 5734 5733 5732 5731 5730 5729 5728 5727 5726 5725 5724 5723 5723 5723 5723 5722 5722 5723 5723 5723 5722 5722 5722 5722 5723 5725 5725 5725 5726 5728 5730 5732 5735 5738 5739 5742 5746 5750 5757 5765 5769 5770 5773 5777 5783 5787 5790 5794 5798 5800 5801 5802 5804 5806 5808 5809 5812 5814 5812 5815 5824 5830 5832 5828 5829 5841 5847 5847 5852 5856 5860 5864 5866 5869 5872 5876 5879 5882 5883 5884
5740 5739 5737 5736 5736 5735 5734 5733 5731 5730 5729 5727 5726 5724 5723 5722 5721 5720 5720 5718 5718 5718 5718 5718 5718 5718 5718 5718 5717 5717 5717 5716 5717 5718 5719 5719 5720 5721 5724 5726 5729 5731 5733 5736 5739 5743 5750 5756 5759 5761 5764 5768 5775 5780 5784 5788 5792 5793 5794 5796 5798 5799 5802 5804 5808 5811 5812 5815 5821 5827 5827 5821 5825 5838 5844 5845 5849 5854 5858 5860 5862 5866 5869 5872 5876 5878 5880 5881
5736 5735 5734 5733 5733 5732 5730 5729 5727 5726 5724 5723 5721 5720 5718 5717 5716 5716 5715 5714 5713 5713 5713 5713 5712 5712 5713 5713 5712 5712 5711 5710 5710 5710 5711 5713 5713 5715 5717 5720 5722 5724 5727 5729 5731 5735 5741 5745 5750 5754 5757 5762 5768 5774 5779 5783 5786 5789 5791 5794 5794 5795 5800 5804 5807 5809 5811 5813 5817 5822 5821 5816 5822 5835 5841 5845 5849 5851 5855 5857 5860 5863 5865 5869 5871 5873 5875 5878
5733 5732 5731 5730 5729 5728 5726 5724 5723 5721 5719 5718 5717 5715 5714 5713 5712 5711 5711 5710 5709 5709 5708 5707 5707 5706 5706 5707 5707 5706 5706 5705 5703 5703 5704 5705 5706 5708 5710 5713 5716 5718 5721 5722 5723 5728 5733 5738 5745 5748 5750 5757 5762 5766 5772 5775 5779 5784 5787 5788 5789 5794 5800 5803 5806 5808 5810 5812 5813 5814 5815 5814 5821 5833 5841 5844 5846 5848 5853 5855 5857 5860 5862 5865 5867 5869 5872 5875
5730 5729 5728 5726 5725 5724 5722 5720 5719 5717 5715 5714 5712 5711 5710 5708 5707 5707 5706 5706 5705 5704 5703 5702 5701 5701 5700 5701 5701 5700 5700 5699 5698 5697 5697 5697 5698 5700 5703 5706 5709 5711 5714 5715 5718 5721 5726 5732 5738 5740 5744 5750 5755 5759 5764 5769 5774 5778 5779 5782 5787 5794 5797 5798 5801 5804 5805 5807 5806 5806 5812 5817 5822 5832 5838 5840 5843 5846 5850 5853 5854 5856 5859 5861 5863 5867 5870 5873
5727 5725 5724 5722 5721 5719 5718 5716 5714 5713 5711 5709 5708 5706 5705 5704 5703 5702 5702 5701 5701 5700 5699 5697 5696 5695 5695 5695 5694 5694 5694 5693 5692 5691 5690 5691 5691 5693 5696 5699 5701 5705 5707 5709 5712 5714 5718 5725 5730 5733 5737 5742 5747 5752 5758 5764 5770 5772 5774 5781 5786 5788 5789 5790 5794 5798 5799 5801 5799 5800 5810 5817 5820 5827 5833 5836 5841 5845 5848 5850 5851 5853 5855 5857 5861 5865 5868 5871
5724 5722 5720 5719 5717 5715 5713 5712 5710 5708 5706 5704 5703 5701 5700 5699 5698 5698 5697 5697 5696 5695 5694 5692 5691 5690 5689 5688 5688 5688 5688 5687 5686 5685 5684 5684 5685 5687 5689 5691 5694 5697 5699 5702 5705 5708 5712 5718 5722 5726 5730 5735 5741 5746 5751 5757 5763 5768 5773 5778 5779 5778 5781 5784 5788 5792 5794 5794 5794 5796 5806 5813 5817 5824 5830 5834 5838 5842 5845 5847 5848 5850 5852 5855 5860 5863 5866 5869
5721 5719 5717 5715 5714 5712 5710 5707 5705 5703 5701 5700 5698 5697 5695 5694 5694 5693 5692 5691 5691 5690 5688 5687 5686 5684 5683 5682 5682 5682 5682 5681 5680 5679 5678 5678 5678 5680 5683 5684 5686 5689 5692 5695 5698 5702 5706 5709 5714 5720 5723 5728 5733 5737 5744 5751 5756 5763 5767 5768 5769 5772 5777 5781 5784 5788 5791 5791 5792 5794 5801 5809 5816 5823 5827 5831 5835 5839 5841 5844 5846 5848 5850 5854 5858 5861 5864 5866
5718 5716 5714 5712 5710 5708 5705 5703 5701 5699 5698 5696 5694 5692 5691 5690 5689 5688 5687 5686 5685 5684 5683 5682 5680 5678 5677 5676 5675 5675 5675 5674 5674 5673 5673 5672 5672 5674 5675 5678 5680 5681 5684 5688 5691 5695 5698 5701 5707 5712 5716 5720 5725 5730 5739 5746 5750 5755 5757 5758 5762 5767 5772 5776 5778 5783 5787 5788 5790 5792 5796 5806 5815 5820 5824 5828 5832 5835 5837 5841 5844 5846 5849 5853 5856 5859 5861 5864
5714 5712 5710 5708 5706 5704 5702 5699 5697 5696 5694 5692 5690 5688 5687 5686 5684 5684 5683 5682 5680 5679 5677 5675 5674 5672 5670 5669 5668 5668 5668 5667 5667 5667 5667 5666 5666 5667 5668 5671 5674 5675 5677 5680 5684 5688 5691 5694 5700 5706 5709 5713 5719 5726 5734 5739 5742 5745 5748 5751 5758 5764 5766 5769 5772 5776 5781 5783 5785 5787 5791 5802 5813 5817 5820 5824 5828 5831 5834 5838 5841 5844 5847 5850 5853 5856 5859 5861
5711 5710 5708 5706 5703 5701 5698 5696 5694 5692 5690 5687 5685 5684 5683 5681 5680 5679 5678 5676 5675 5673 5671 5669 5667 5665 5664 5662 5661 5660 5660 5660 5660 5660 5660 5660 5660 5660 5661 5665 5667 5669 5671 5673 5676 5681 5685 5688 5693 5699 5703 5708 5716 5722 5726 5731 5734 5738 5742 5747 5754 5758 5760 5763 5767 5772 5777 5779 5781 5783 5786 5797 5810 5814 5816 5820 5824 5827 5831 5834 5839 5842 5845 5848 5851 5854 5856 5859
5709 5707 5705 5703 5701 5698 5695 5692 5690 5688 5686 5684 5682 5680 5679 5677 5676 5674 5673 5671 5669 5667 5664 5662 5660 5658 5656 5654 5653 5652 5652 5652 5652 5653 5653 5653 5654 5654 5655 5658 5660 5663 5665 5666 5669 5674 5678 5681 5686 5693 5698 5704 5712 5716 5718 5723 5728 5732 5737 5742 5747 5751 5753 5759 5764 5768 5772 5774 5778 5779 5781 5794 5809 5811 5813 5817 5821 5824 5827 5830 5835 5839 5842 5845 5848 5851 5853 5856
5707 5704 5703 5701 5698 5695 5692 5689 5687 5685 5683 5681 5679 5677 5675 5673 5672 5670 5668 5666 5663 5661 5658 5655 5653 5651 5648 5646 5645 5644 5644 5644 5645 5645 5646 5646 5647 5647 5649 5652 5654 5656 5658 5660 5663 5667 5671 5675 5680 5686 5692 5697 5703 5707 5710 5715 5721 5726 5731 5736 5741 5745 5749 5756 5760 5763 5766 5769 5774 5776 5777 5792 5806 5808 5809 5814 5817 5820 5823 5826 5831 5835 5838 5841 5844 5847 5850 5852
5704 5702 5700 5698 5696 5693 5690 5687 5685 5683 5680 5678 5676 5674 5671 5669 5667 5665 5662 5660 5657 5654 5651 5648 5646 5643 5641 5639 5638 5637 5636 5636 5638 5639 5639 5639 5640 5641 5643 5646 5648 5649 5651 5654 5657 5660 5664 5669 5674 5679 5683 5688 5694 5697 5701 5707 5714 5720 5725 5731 5735 5739 5745 5751 5753 5756 5760 5765 5772 5772 5774 5790 5803 5804 5806 5810 5812 5816 5819 5822 5826 5830 5834 5838 5840 5843 5845 5848
5702 5700 5698 5696 5694 5691 5688 5685 5683 5680 5678 5675 5673 5670 5668 5665 5662 5660 5657 5654 5651 5648 5644 5641 5638 5635 5634 5632 5631 5630 5629 5629 5631 5632 5632 5633 5634 5635 5637 5640 5642 5643 5645 5648 5650 5654 5657 5662 5667 5671 5676 5682 5688 5692 5696 5702 5709 5715 5720 5725 5729 5733 5739 5743 5746 5751 5756 5762 5768 5768 5774 5789 5799 5800 5802 5804 5806 5810 5813 5817 5821 5824 5828 5832 5835 5838 5841 5843
5700 5698 5695 5693 5691 5689 5686 5683 5680 5678 5675 5672 5670 5667 5664 5661 5657 5655 5652 5649 5645 5641 5638 5634 5631 5628 5627 5626 5626 5625 5624 5624 5625 5626 5627 5628 5629 5630 5632 5634 5636 5638 5640 5642 5645 5648 5651 5656 5661 5665 5670 5676 5682 5686 5692 5697 5704 5710 5715 5720 5724 5728 5733 5737 5741 5746 5752 5759 5763 5765 5775 5788 5793 5794 5797 5799 5801 5804 5807 5811 5815 5818 5821 5825 5828 5831 5834 5837
5698 5696 5693 5691 5689 5687 5684 5681 5678 5676 5673 5670 5667 5664 5660 5657 5654 5650 5647 5644 5640 5636 5632 5629 5626 5624 5623 5622 5621 5621 5620 5621 5621 5622 5623 5624 5625 5626 5627 5629 5630 5633 5635 5637 5639 5642 5645 5651 5655 5658 5663 5669 5675 5681 5686 5692 5699 5705 5710 5715 5719 5723 5728 5733 5738 5743 5749 5754 5756 5762 5775 5784 5787 5790 5793 5794 5796 5799 5802 5806 5810 5814 5817 5820 5823 5826 5829 5832
5697 5694 5692 5690 5687 5685 5682 5679 5676 5674 5671 5668 5665 5661 5658 5654 5650 5647 5643 5639 5635 5631 5628 5625 5622 5621 5620 5619 5618 5618 5618 5619 5619 5620 5620 5621 5621 5622 5623 5624 5626 5628 5630 5632 5634 5637 5640 5646 5650 5651 5657 5664 5670 5676 5681 5687 5694 5700 5705 5710 5713 5718 5724 5729 5734 5739 5744 5747 5751 5762 5775 5780 5783 5787 5789 5789 5793 5796 5799 5803 5806 5810 5813 5816 5819 5823 5825 5828
5696 5693 5691 5688 5686 5683 5680 5678 5675 5672 5669 5665 5662 5659 5655 5651 5648 5644 5640 5635 5631 5627 5623 5621 5620 5619 5618 5617 5616 5616 5616 5617 5617 5617 5617 5617 5618 5618 5620 5621 5622 5624 5626 5628 5630 5633 5636 5641 5643 5646 5652 5659 5666 5671 5677 5682 5689 5694 5699 5703 5708 5713 5719 5723 5728 5733 5737 5741 5749 5761 5771 5775 5779 5783 5785 5786 5790 5792 5796 5799 5802 5806 5809 5812 5815 5818 5821 5825
5695 5692 5690 5687 5685 5682 5679 5676 5673 5670 5667 5664 5660 5657 5653 5649 5645 5641 5636 5632 5628 5623 5620 5618 5617 5616 5615 5615 5614 5614 5614 5614 5614 5614 5614 5614 5615 5615 5616 5617 5618 5619 5622 5624 5626 5629 5632 5635 5638 5641 5647 5654 5660 5665 5670 5677 5683 5687 5691 5697 5703 5708 5713 5718 5723 5727 5732 5739 5747 5757 5766 5771 5774 5778 5781 5784 5786 5789 5793 5796 5799 5803 5805 5808 5812 5815 5818 5821
5694 5691 5689 5686 5683 5681 5678 5675 5672 5669 5666 5662 5659 5655 5651 5647 5642 5638 5633 5628 5624 5621 5619 5617 5615 5614 5614 5613 5613 5612 5612 5612 5611 5611 5611 5611 5612 5612 5612 5613 5614 5616 5618 5619 5622 5625 5627 5630 5633 5636 5642 5650 5655 5659 5665 5671 5676 5680 5686 5693 5699 5704 5709 5714 5719 5723 5729 5735 5743 5753 5763 5768 5770 5773 5778 5781 5783 5786 5790 5793 5797 5800 5803 5805 5809 5811 5814 5817